GW2622 Weather Reports


time (UTC)temp
F
wind
direction
speed
knots
gust
knots
rain 1hr
in
rain 24hr
in
rain mn
in
humidity
%
barometer
mb
20260831094933 76 201 3.5 5.2 0.00 0.00 0.00 78 1010.7
20260831094430 76 221 2.6 5.2 0.00 0.00 0.00 78 1010.5
20260831093925 77 256 1.7 4.3 0.00 0.00 0.00 77 1010.7
20260831093420 77 222 2.6 4.3 0.00 0.00 0.00 77 1010.6
20260831092917 77 246 1.7 2.6 0.00 0.00 0.00 76 1010.8
20260831092412 77 229 1.7 2.6 0.00 0.00 0.00 76 1011.0
20260831091907 78 259 1.7 4.3 0.00 0.00 0.00 75 1010.8
20260831091402 78 229 1.7 2.6 0.00 0.00 0.00 75 1010.9
20260831090852 78 207 2.6 4.3 0.00 0.00 0.00 75 1011.0
20260831090348 78 217 3.5 5.2 0.00 0.00 0.00 75 1010.7
20260831085844 78 195 2.6 5.2 0.00 0.00 0.00 74 1010.8
20260831085338 78 218 4.3 7.0 0.00 0.00 0.00 74 1010.6
20260831084833 79 239 3.5 6.1 0.00 0.00 0.00 74 1010.9
20260831084330 79 224 5.2 6.1 0.00 0.00 0.00 74 1010.7
20260831083826 79 213 4.3 8.7 0.00 0.00 0.00 73 1010.8
20260831083321 79 226 5.2 7.0 0.00 0.00 0.00 74 1010.7
20260831082819 79 221 6.1 7.8 0.00 0.00 0.00 73 1010.5
20260831082314 79 221 4.3 8.7 0.00 0.00 0.00 74 1010.8
20260831081810 79 206 3.5 6.1 0.00 0.00 0.00 74 1010.7
20260831081305 79 188 3.5 7.0 0.00 0.00 0.00 74 1010.8
20260831080800 79 168 6.1 7.0 0.00 0.00 0.00 74 1010.7
20260831080255 79 168 5.2 7.0 0.00 0.00 0.00 73 1010.7
20260831075752 79 216 4.3 6.1 0.00 0.00 0.00 74 1010.8
20260831075247 79 193 3.5 7.0 0.00 0.00 0.00 74 1010.6
20260831074746 79 217 4.3 7.0 0.00 0.00 0.00 74 1010.7
20260831074240 80 196 3.5 6.1 0.00 0.00 0.00 74 1010.7
20260831073736 80 212 6.1 7.0 0.00 0.00 0.00 73 1010.6
20260831073235 79 194 3.5 6.1 0.00 0.00 0.00 74 1010.7
20260831072730 79 139 5.2 7.0 0.00 0.00 0.00 74 1010.6
20260831072226 79 189 2.6 6.1 0.00 0.00 0.00 74 1010.6
20260831071721 79 226 2.6 4.3 0.00 0.00 0.00 75 1010.8
20260831071221 79 204 2.6 6.1 0.00 0.00 0.00 75 1010.6
20260831070715 79 155 2.6 5.2 0.00 0.00 0.00 75 1010.5
20260831070209 80 164 3.5 4.3 0.00 0.00 0.00 75 1010.9
20260831065709 80 233 2.6 5.2 0.00 0.00 0.00 75 1010.7
20260831065207 80 174 3.5 5.2 0.00 0.00 0.00 75 1010.7
20260831064702 79 162 4.3 7.0 0.00 0.00 0.00 75 1010.7
20260831064157 79 192 3.5 5.2 0.00 0.00 0.00 75 1010.8
20260831063653 79 223 2.6 4.3 0.00 0.00 0.00 77 1010.8
20260831063143 79 157 4.3 6.1 0.00 0.00 0.00 76 1010.9
20260831062642 79 179 4.3 5.2 0.00 0.00 0.00 78 1011.0
20260831062136 79 190 3.5 5.2 0.00 0.00 0.00 78 1010.9
20260831061634 79 171 3.5 5.2 0.00 0.00 0.00 78 1011.2
20260831061130 78 177 3.5 4.3 0.00 0.00 0.00 79 1010.9
20260831060626 78 185 2.6 4.3 0.00 0.00 0.00 79 1011.1
20260831060120 79 192 3.5 4.3 0.00 0.00 0.00 79 1011.1
20260831055614 79 181 2.6 4.3 0.00 0.00 0.00 80 1010.9
20260831055110 79 180 2.6 5.2 0.00 0.00 0.00 80 1011.0
20260831054609 79 168 3.5 4.3 0.00 0.00 0.00 80 1011.0
20260831054109 79 201 2.6 4.3 0.00 0.00 0.00 80 1011.1
20260831053608 79 162 3.5 4.3 0.00 0.00 0.00 80 1010.9
20260831053102 79 188 3.5 7.0 0.00 0.00 0.00 79 1011.0
20260831052601 79 179 4.3 6.1 0.00 0.00 0.00 79 1010.9
20260831052056 79 166 3.5 6.1 0.00 0.00 0.00 79 1010.9
20260831051554 80 161 3.5 8.7 0.00 0.00 0.00 79 1010.7
20260831051053 80 178 4.3 7.0 0.00 0.00 0.00 79 1010.6
20260831050553 80 175 3.5 6.1 0.00 0.00 0.00 79 1010.7
20260831050051 80 189 3.5 7.0 0.00 0.00 0.00 79 1010.7
20260831045551 80 171 4.3 7.0 0.00 0.00 0.00 79 1010.7
20260831045046 80 240 3.5 5.2 0.00 0.00 0.00 80 1010.5
20260831044541 80 159 5.2 8.7 0.00 0.00 0.00 79 1010.7
20260831044036 80 178 2.6 5.2 0.00 0.00 0.00 80 1010.8
20260831043537 80 153 3.5 5.2 0.00 0.00 0.00 80 1010.7
20260831043032 80 184 3.5 5.2 0.00 0.00 0.00 79 1010.6
20260831042527 80 174 3.5 6.1 0.00 0.00 0.00 80 1010.7
20260831042026 80 159 2.6 5.2 0.00 0.00 0.00 80 1010.8
20260831041521 80 223 2.6 7.0 0.00 0.00 0.00 80 1010.8
20260831041015 80 197 3.5 5.2 0.00 0.00 0.00 80 1010.8
20260831040510 80 156 3.5 5.2 0.00 0.00 0.00 81 1010.8
20260831040009 80 204 3.5 5.2 0.00 0.00 0.00 81 1010.9
20260831035502 80 173 2.6 6.1 0.00 0.00 0.00 81 1010.8
20260831034957 80 184 3.5 7.0 0.00 0.00 0.00 81 1010.7
20260831034451 80 174 3.5 6.1 0.00 0.00 0.00 81 1010.9
20260831033947 80 186 5.2 7.8 0.00 0.00 0.00 82 1011.0
20260831033442 80 191 2.6 4.3 0.00 0.00 0.00 83 1010.8
20260831032937 80 176 2.6 4.3 0.00 0.00 0.00 83 1010.8
20260831032432 80 184 3.5 6.1 0.00 0.00 0.00 82 1011.0
20260831031927 80 172 4.3 5.2 0.00 0.00 0.00 82 1011.0
20260831031427 80 146 2.6 4.3 0.00 0.00 0.00 83 1011.0
20260831030921 79 225 2.6 4.3 0.00 0.00 0.00 84 1010.7
20260831030420 79 205 2.6 5.2 0.00 0.00 0.00 84 1011.0
20260831025919 80 179 2.6 2.6 0.00 0.00 0.00 84 1010.9
20260831025418 80 188 1.7 2.6 0.00 0.00 0.00 84 1010.9
20260831024914 80 162 3.5 4.3 0.00 0.00 0.00 84 1011.1
20260831024413 80 178 2.6 4.3 0.00 0.00 0.00 84 1010.9
20260831023913 80 164 3.5 4.3 0.00 0.00 0.00 84 1010.9
20260831023411 80 180 2.6 4.3 0.00 0.00 0.00 84 1011.0
20260831022907 81 168 2.6 4.3 0.00 0.00 0.00 83 1011.0
20260831022405 81 185 2.6 4.3 0.00 0.00 0.00 82 1010.9
20260831021900 81 172 2.6 2.6 0.00 0.00 0.00 82 1011.0
20260831021400 81 167 2.6 5.2 0.00 0.00 0.00 82 1011.1
20260831020856 81 155 3.5 4.3 0.00 0.00 0.00 82 1010.9
20260831020355 81 158 1.7 4.3 0.00 0.00 0.00 83 1011.0
20260831015851 81 186 2.6 5.2 0.00 0.00 0.00 83 1011.0
20260831015346 82 171 2.6 2.6 0.00 0.00 0.00 82 1011.1
20260831014846 82 183 1.7 2.6 0.00 0.00 0.00 82 1010.9
20260831014341 82 167 2.6 2.6 0.00 0.00 0.00 82 1010.9
20260831013837 82 190 1.7 4.3 0.00 0.00 0.00 82 1010.9
20260831013332 82 203 0.9 2.6 0.00 0.00 0.00 81 1010.8
20260831012826 82 188 2.6 2.6 0.00 0.00 0.00 81 1010.8
20260831012322 83 191 2.6 2.6 0.00 0.00 0.00 81 1010.7
20260831011821 83 186 2.6 2.6 0.00 0.00 0.00 81 1010.7
20260831011316 83 189 2.6 4.3 0.00 0.00 0.00 81 1010.8
20260831010812 83 211 1.7 2.6 0.00 0.00 0.00 81 1010.6
20260831010307 83 206 1.7 2.6 0.00 0.00 0.00 81 1010.6
20260831005803 83 225 1.7 1.7 0.00 0.00 0.00 81 1010.6
20260831005258 84 219 1.7 1.7 0.00 0.00 0.00 81 1010.6
20260831004752 84 250 1.7 1.7 0.00 0.00 0.00 81 1010.7
20260831004248 84 267 0.9 0.9 0.00 0.00 0.00 82 1010.5
20260831003744 84 259 0.9 1.7 0.00 0.00 0.00 81 1010.6
20260831003240 85 274 0.0 0.0 0.00 0.00 0.00 81 1010.5
20260831002739 85 238 1.7 2.6 0.00 0.00 0.00 80 1010.4
20260831002238 85 249 0.9 1.7 0.00 0.00 0.00 80 1010.4
20260831001735 85 195 1.7 1.7 0.00 0.00 0.00 79 1010.5
20260831001229 86 186 1.7 1.7 0.00 0.00 0.00 79 1010.4
20260831000726 86 233 0.9 1.7 0.00 0.00 0.00 79 1010.4
20260831000221 86 254 1.7 1.7 0.00 0.00 0.00 78 1010.2
20260830235720 86 184 2.6 4.3 0.00 0.00 0.00 78 1010.0
20260830235215 87 189 1.7 2.6 0.00 0.00 0.00 77 1010.2
20260830234710 87 253 1.7 4.3 0.00 0.00 0.00 76 1010.3
20260830234206 87 181 2.6 4.3 0.00 0.00 0.00 77 1009.9
20260830233701 87 161 5.2 6.1 0.00 0.00 0.00 77 1009.8
20260830233157 88 246 0.9 4.3 0.00 0.00 0.00 78 1009.9
20260830232652 88 192 2.6 4.3 0.00 0.00 0.00 77 1010.0
20260830232148 88 219 2.6 6.1 0.00 0.00 0.00 76 1009.8
20260830231645 88 182 5.2 6.1 0.00 0.00 0.00 76 1009.8
20260830231144 89 169 3.5 5.2 0.00 0.00 0.00 76 1009.9
20260830230639 89 216 4.3 5.2 0.00 0.00 0.00 76 1009.8
20260830230139 88 195 3.5 5.2 0.00 0.00 0.00 77 1009.8
20260830225634 88 182 4.3 6.1 0.00 0.00 0.00 78 1009.9
20260830225128 88 182 3.5 4.3 0.00 0.00 0.00 79 1009.9
20260830224627 89 202 4.3 5.2 0.00 0.00 0.00 78 1010.0
20260830224123 89 171 2.6 2.6 0.00 0.00 0.00 77 1009.9
20260830223620 89 215 2.6 4.3 0.00 0.00 0.00 78 1009.9
20260830223114 87 172 1.7 4.3 0.00 0.00 0.00 81 1010.0
20260830222609 87 159 2.6 6.1 0.00 0.00 0.00 81 1010.0
20260830222105 87 228 3.5 5.2 0.00 0.00 0.00 81 1009.9
20260830221600 86 199 3.5 4.3 0.00 0.00 0.00 81 1009.8
20260830221056 85 152 3.5 5.2 0.00 0.00 0.00 82 1009.7
20260830220551 85 179 2.6 4.3 0.00 0.00 0.00 83 1009.7
20260830220049 85 203 2.6 7.0 0.00 0.00 0.00 82 1009.8
20260830215544 85 170 2.6 7.0 0.00 0.00 0.00 82 1009.7
20260830215038 85 182 2.6 6.1 0.00 0.00 0.00 81 1009.9
20260830214533 85 187 2.6 9.6 0.00 0.00 0.00 80 1009.6
20260830214028 85 168 2.6 7.8 0.00 0.00 0.00 80 1010.3
20260830213527 85 186 2.6 6.1 0.00 0.00 0.00 79 1010.0
20260830213023 85 111 4.3 7.0 0.00 0.00 0.00 80 1010.0
20260830212518 84 182 0.9 4.3 0.00 0.00 0.00 80 1010.3
20260830212013 84 186 3.5 7.0 0.00 0.00 0.00 79 1010.4
20260830211508 85 158 3.5 6.1 0.00 0.00 0.00 79 1010.5
20260830211003 84 169 4.3 7.8 0.00 0.00 0.00 78 1010.4
20260830210503 84 214 4.3 7.0 0.00 0.00 0.00 78 1010.2
20260830210002 84 174 4.3 7.0 0.00 0.00 0.00 77 1010.5
20260830205500 85 112 4.3 6.1 0.00 0.00 0.00 77 1010.5
20260830204955 85 174 4.3 6.1 0.00 0.00 0.00 77 1010.8
20260830204454 85 210 2.6 5.2 0.00 0.00 0.00 77 1010.7
20260830203949 85 202 3.5 7.8 0.00 0.00 0.00 76 1010.6
20260830203446 85 184 4.3 7.0 0.00 0.00 0.00 76 1010.6
20260830202944 85 140 2.6 4.3 0.00 0.00 0.00 77 1010.7
20260830202440 85 194 1.7 2.6 0.00 0.00 0.00 76 1010.8
20260830201936 84 165 2.6 7.0 0.00 0.00 0.00 75 1010.9
20260830201429 84 241 3.5 7.0 0.00 0.00 0.00 75 1010.8
20260830200925 85 239 0.9 4.3 0.00 0.00 0.00 75 1010.9
20260830200420 85 195 3.5 5.2 0.00 0.00 0.00 74 1010.9
20260830195914 84 143 3.5 6.1 0.00 0.00 0.00 75 1011.2
20260830195415 84 217 4.3 7.0 0.00 0.00 0.00 74 1011.0
20260830194913 85 190 4.3 7.0 0.00 0.00 0.00 73 1011.3
20260830194412 85 223 3.5 4.3 0.00 0.00 0.00 75 1011.2
20260830193912 84 190 3.5 6.1 0.00 0.00 0.00 75 1011.4
20260830193411 84 186 1.7 5.2 0.00 0.00 0.00 76 1011.4
20260830192907 83 176 4.3 7.0 0.00 0.00 0.00 75 1011.2
20260830192403 83 176 2.6 4.3 0.00 0.00 0.00 78 1011.2
20260830191858 82 195 3.5 6.1 0.00 0.00 0.00 78 1011.5
20260830191357 82 156 3.5 6.1 0.00 0.00 0.00 76 1011.6
20260830190853 83 190 4.3 6.1 0.00 0.00 0.00 76 1011.7
20260830190348 83 229 4.3 6.1 0.00 0.00 0.00 74 1011.6
20260830185846 82 204 4.3 7.0 0.00 0.00 0.00 76 1011.6
20260830185342 82 187 2.6 5.2 0.00 0.00 0.00 78 1011.6
20260830184837 82 212 4.3 5.2 0.00 0.00 0.00 77 1011.6
20260830184336 82 176 2.6 4.3 0.00 0.00 0.00 76 1011.6
20260830183831 81 254 4.3 6.1 0.00 0.00 0.00 77 1011.5
20260830183330 81 235 2.6 4.3 0.00 0.00 0.00 78 1011.7
20260830182826 81 204 2.6 5.2 0.00 0.00 0.00 78 1011.7
20260830182322 80 233 2.6 5.2 0.00 0.00 0.00 78 1011.7
20260830181818 80 241 2.6 4.3 0.00 0.00 0.00 77 1011.7
20260830181313 80 247 1.7 5.2 0.00 0.00 0.00 78 1012.1
20260830180807 80 193 3.5 6.1 0.00 0.00 0.00 77 1011.9
20260830180302 80 254 1.7 6.1 0.00 0.00 0.00 78 1011.9
20260830175800 80 154 5.2 7.8 0.00 0.00 0.00 76 1011.9
20260830175256 80 183 3.5 5.2 0.00 0.00 0.00 77 1012.0
20260830174756 80 225 2.6 4.3 0.00 0.00 0.00 77 1012.2
20260830174252 80 223 6.1 7.0 0.00 0.00 0.00 76 1012.1
20260830173751 80 206 3.5 5.2 0.00 0.00 0.00 78 1012.0
20260830173246 80 228 2.6 5.2 0.00 0.00 0.00 80 1012.3
20260830172743 80 218 3.5 7.0 0.00 0.00 0.00 79 1012.1
20260830172240 80 208 2.6 4.3 0.00 0.00 0.00 79 1012.1
20260830171735 81 171 1.7 2.6 0.00 0.00 0.00 78 1012.2
20260830171230 80 211 3.5 7.0 0.00 0.00 0.00 79 1012.2
20260830170725 80 243 0.9 2.6 0.00 0.00 0.00 79 1012.4
20260830170224 79 247 1.7 4.3 0.00 0.00 0.00 79 1012.5
20260830165723 79 160 2.6 2.6 0.00 0.00 0.00 78 1012.6
20260830165219 79 268 0.9 2.6 0.00 0.00 0.00 80 1012.4
20260830164715 79 292 0.0 2.6 0.00 0.00 0.00 82 1012.4
20260830164211 78 268 0.9 1.7 0.00 0.00 0.00 81 1012.7
20260830163707 78 262 0.9 1.7 0.00 0.00 0.00 84 1012.7
20260830163203 77 270 0.9 0.9 0.00 0.00 0.00 82 1012.9
20260830162657 77 333 0.0 0.0 0.00 0.00 0.00 85 1012.8
20260830162153 76 306 0.0 0.9 0.00 0.00 0.00 85 1012.8
20260830161648 76 305 0.9 0.9 0.00 0.00 0.00 89 1012.9
20260830161142 75 305 0.0 0.0 0.00 0.00 0.00 88 1012.8
20260830160639 75 304 0.9 0.9 0.00 0.00 0.00 88 1012.8
20260830160139 75 291 0.0 1.7 0.00 0.00 0.00 88 1012.6
20260830155636 75 265 1.7 1.7 0.00 0.00 0.00 86 1012.7
20260830155131 76 226 3.5 5.2 0.00 0.00 0.00 85 1012.5
20260830154626 76 172 4.3 5.2 0.00 0.00 0.00 84 1012.4
20260830154122 76 198 3.5 5.2 0.00 0.00 0.00 85 1012.3
20260830153618 76 197 4.3 7.0 0.00 0.00 0.00 84 1012.2
20260830153118 76 209 3.5 4.3 0.00 0.00 0.00 86 1012.4
20260830152617 76 199 4.3 5.2 0.00 0.00 0.00 85 1012.1
20260830152116 75 223 3.5 4.3 0.00 0.00 0.00 84 1012.0
20260830151611 75 220 3.5 4.3 0.00 0.00 0.00 85 1012.1
20260830151106 75 225 4.3 6.1 0.00 0.00 0.00 85 1011.8
20260830150601 75 210 4.3 7.8 0.00 0.00 0.00 85 1011.9
20260830150055 75 229 5.2 7.0 0.00 0.00 0.00 84 1012.0
20260830145555 75 204 3.5 5.2 0.00 0.00 0.00 85 1011.9
20260830145050 75 222 3.5 4.3 0.00 0.00 0.00 85 1011.9
20260830144546 75 192 3.5 5.2 0.00 0.00 0.00 85 1012.1
20260830144042 75 215 3.5 6.1 0.00 0.00 0.00 84 1011.8
20260830143538 75 202 5.2 7.0 0.00 0.00 0.00 83 1011.7
20260830143035 75 240 4.3 6.1 0.00 0.00 0.00 82 1011.7
20260830142531 75 210 6.1 7.8 0.00 0.00 0.00 81 1011.9
20260830142026 75 217 4.3 7.8 0.00 0.00 0.00 81 1011.8
20260830141521 76 216 4.3 7.0 0.00 0.00 0.00 81 1011.7
20260830141016 76 246 1.7 7.8 0.00 0.00 0.00 81 1011.8
20260830140516 76 231 6.1 9.6 0.00 0.00 0.00 79 1011.7
20260830140012 76 229 4.3 7.8 0.00 0.00 0.00 80 1011.6
20260830135506 76 241 5.2 8.7 0.00 0.00 0.00 80 1011.9
20260830135001 75 208 6.1 8.7 0.00 0.00 0.00 79 1011.6
20260830134456 75 203 4.3 7.0 0.00 0.00 0.00 79 1011.5
20260830133946 76 269 4.3 7.0 0.00 0.00 0.00 79 1011.5
20260830133442 76 141 6.1 8.7 0.00 0.00 0.00 79 1011.2
20260830132937 76 189 3.5 7.8 0.00 0.00 0.00 79 1011.2
20260830132433 77 220 5.2 9.6 0.00 0.00 0.00 77 1011.1
20260830131931 77 209 6.1 7.8 0.00 0.00 0.00 74 1011.1
20260830131426 78 199 7.8 9.6 0.00 0.00 0.00 71 1011.3
20260830130920 78 216 5.2 8.7 0.00 0.00 0.00 71 1011.2
20260830130416 78 222 7.8 12.2 0.00 0.00 0.00 70 1011.4
20260830125915 79 205 5.2 8.7 0.00 0.00 0.00 71 1011.4
20260830125411 79 208 7.0 11.3 0.00 0.00 0.00 71 1011.2
20260830124908 78 239 7.0 11.3 0.00 0.00 0.00 70 1011.3
20260830124403 78 207 7.0 13.9 0.00 0.00 0.00 72 1011.1
20260830123900 78 216 7.0 13.0 0.00 0.00 0.00 71 1011.4
20260830123356 78 287 7.8 12.2 0.00 0.00 0.00 71 1011.4
20260830122854 78 260 7.0 11.3 0.00 0.00 0.00 71 1011.4
20260830122348 78 216 8.7 11.3 0.00 0.00 0.00 71 1011.3
20260830121844 78 214 4.3 8.7 0.00 0.00 0.00 71 1011.4
20260830121344 78 192 7.0 8.7 0.00 0.00 0.00 71 1011.4
20260830120839 78 219 7.8 9.6 0.00 0.00 0.00 71 1011.3
20260830120334 78 226 7.0 9.6 0.00 0.00 0.00 70 1011.3
20260830115831 78 201 5.2 7.8 0.00 0.00 0.00 71 1011.3
20260830115327 78 183 6.1 9.6 0.00 0.00 0.00 70 1011.3
20260830114822 78 231 6.1 7.8 0.00 0.00 0.00 70 1011.1
20260830114318 78 219 3.5 7.8 0.00 0.00 0.00 71 1011.3
20260830113812 78 210 7.0 11.3 0.00 0.00 0.00 69 1011.3
20260830113308 78 194 4.3 11.3 0.00 0.00 0.00 71 1010.9
20260830112804 78 211 9.6 12.2 0.00 0.00 0.00 70 1010.9
20260830112259 78 220 5.2 11.3 0.00 0.00 0.00 71 1010.8
20260830111755 78 194 7.0 12.2 0.00 0.00 0.00 70 1010.9
20260830111250 78 215 6.1 11.3 0.00 0.00 0.00 70 1010.9
20260830110750 78 211 6.1 13.9 0.00 0.00 0.00 70 1011.0
20260830110247 78 195 7.8 14.8 0.00 0.00 0.00 70 1010.9
20260830105745 78 201 6.1 9.6 0.00 0.00 0.00 72 1011.0
20260830105241 78 218 7.0 11.3 0.00 0.00 0.00 71 1011.1
20260830104738 78 211 7.8 11.3 0.00 0.00 0.00 71 1011.0
20260830104235 78 221 7.8 11.3 0.00 0.00 0.00 71 1010.9
20260830103734 78 211 6.1 12.2 0.00 0.00 0.00 71 1011.0
20260830103230 78 210 6.1 9.6 0.00 0.00 0.00 72 1011.0
20260830102727 78 199 7.8 13.0 0.00 0.00 0.00 72 1011.2
20260830102224 78 221 9.6 12.2 0.00 0.00 0.00 72 1011.0
20260830101719 78 212 8.7 12.2 0.00 0.00 0.00 72 1011.2
20260830101214 78 173 6.1 13.9 0.00 0.00 0.00 73 1011.1
20260830100708 78 209 6.1 8.7 0.00 0.00 0.00 72 1011.0
20260830100203 78 228 7.0 9.6 0.00 0.00 0.00 72 1011.1
20260830095701 78 230 7.0 12.2 0.00 0.00 0.00 72 1011.2